Location: Erba
(45.8000°N, 9.2500°E)
Time: 12:22:30
(UTC+02:00)

ISS - Pass Details

Date: 02 July 2020
Orbit: 417 x 420 km, 51.6° (Epoch: 02 July)

Event Time Altitude Azimuth Distance (km) Brightness Sun altitude
Exits shadow 03:22:37 23° 148° (SSE) 929 -2.3 -16.4°
Maximum altitude 03:22:57 24° 138° (SE) 919 -2.2 -16.3°
Drops below altitude 10° 03:25:42 10° 83° (E) 1,494 -0.5 -16.1°
Sets 03:28:02 0° 69° (ENE) 2,361 0.9 -15.9°
